Location: Franzen
(48.6167°N, 15.3833°E)
Time: 17:33:44
(UTC+00:00)

Courier 1B Rocket - All Passes

Search period start: 28 July 2021 00:00
Search period end: 07 August 2021 00:00
Orbit: 920 x 1202 km, 28.2° (Epoch: 27 July)

Date Brightness Start Highest point End Pass type
(mag) Time Alt. Az. Time Alt. Az. Time Alt. Az.
28 Jul - 03:34:37 10° S 03:35:27 10° S 03:36:16 10° SSE daylight
29 Jul - 04:26:14 10° S 04:26:50 10° S 04:27:25 10° S daylight
30 Jul - 03:24:54 10° SSW 03:26:15 11° S 03:27:37 10° SSE daylight
31 Jul - 02:24:18 10° S 02:25:41 11° S 02:27:02 10° SSE visible
01 Aug - 01:24:37 10° S 01:25:05 10° S 01:25:33 10° SSE visible
01 Aug - 03:16:04 10° SSW 03:17:03 10° S 03:18:03 10° S daylight
02 Aug - 02:14:38 10° SSW 02:16:29 11° S 02:18:18 10° SSE visible
03 Aug - 01:13:49 10° SSW 01:15:52 11° S 01:17:53 10° SSE visible
04 Aug - 00:13:26 10° S 00:15:14 11° S 00:17:00 10° SSE visible
04 Aug - 02:05:34 10° SSW 02:07:15 11° S 02:08:55 10° S visible
04 Aug - 23:14:17 10° S 23:14:35 10° SSE 23:14:52 10° SSE night (unlit)
05 Aug - 01:04:11 10° SSW 01:06:38 12° S 01:09:03 10° SSE visible
06 Aug - 00:03:15 10° SSW 00:05:59 13° S 00:08:40 10° SSE visible
06 Aug - 23:02:41 10° SSW 23:05:19 12° S 23:07:54 10° SSE night (unlit)
